Content
SEND FEEDBACK

Daily
Averages
Monthly
Summary
United States of America

NASHVILLE, TENNESSEE


Home > North America > United States > Tennessee
Elevation: 569 feet     Latitude: 36 07N     Longitude: 086 41W

WEATHER
 
SELECT A DAY
Number of Records: 196,381;   Date Range: 1/1/95 - 7/20/14
 
SHARE

PRINT THIS DATA

[ ← Previous Day ]
WEATHER ALMANAC - FEBRUARY 13, 2013
[ Next Day → ]
[ °C ]   °F
Weather ElementAverageHighLow
Temperature39.4 °F43 °F (1:53 am)33.1 °F (11:53 pm)
Dewpoint35.6 °F39.2 °F (4:22 am)30.9 °F (11:53 pm)
Humidity86.3 %93 % (3:53 am)76 % (1:53 am)
Barometer29.85 in30.03 in (11:53 pm)29.73 in (4:03 am)
Wind Speed7.1 mph15 mph (11:28 am)
Wind Gust20.7 mph (10:53 am)
Weather ElementAverage
Visibility6.5 mi
Wind DirectionWSW (240 °)

Weather ElementTotal
Precipitation0.39 in
Heating Degree Days27 (Base 65)
Averaged from 39 records on February 13, 2013
WEATHER CONDITIONS BREAKOUT
WIND DIRECTION BREAKOUT
WEATHER BY HOUR - FEBRUARY 13, 2013
[ °C ]   °F
Local TimeTemperatureDewpointHumidityBarometerVisibilityWind DirectionWind SpeedGust SpeedPrecipitationEventsConditions
1:53 AM43.0 °F36.0 °F76 %29.78 in10.0 miNE (50°)6.9 mph0.00 inRainLight Rain
2:30 AM42.8 °F35.6 °F76 %29.76 in6.0 miENE (60°)5.8 mph0.02 inRainRain
2:53 AM42.1 °F37.0 °F82 %29.75 in5.0 miEast (80°)4.6 mph0.04 inRainLight Rain
3:53 AM41.0 °F39.0 °F93 %29.74 in5.0 miNNE (20°)3.5 mph0.10 inRainLight Rain
4:03 AM41.0 °F37.4 °F87 %29.73 in4.0 miNNE (20°)6.9 mph0.00 inRainLight Rain
4:22 AM41.0 °F39.2 °F93 %29.73 in3.0 miNorth (10°)5.8 mph0.01 inOvercast
4:41 AM41.0 °F39.2 °F93 %29.73 in2.5 miNNE (20°)5.8 mph0.01 inRainLight Rain
4:53 AM41.0 °F39.0 °F93 %29.73 in3.0 miNorth (360°)6.9 mph0.02 inRainLight Rain
5:13 AM41.0 °F39.2 °F93 %29.73 in2.5 miNorth (350°)6.9 mph0.00 inRainLight Rain
5:44 AM41.0 °F39.2 °F93 %29.73 in3.0 miNorth (360°)6.9 mph0.02 inRainLight Rain
5:53 AM41.0 °F39.0 °F93 %29.75 in2.5 miNorth (350°)6.9 mph0.03 inRainLight Rain
6:01 AM41.0 °F39.2 °F93 %29.75 in3.0 miNNW (330°)8.1 mph0.00 inRainLight Rain
6:15 AM39.2 °F37.4 °F93 %29.76 in2.0 miNNW (340°)8.1 mph0.01 inRainRain
6:53 AM39.0 °F37.0 °F93 %29.76 in2.0 miNorth (350°)11.5 mph18.4 mph0.04 inRainLight Rain
7:15 AM39.2 °F37.4 °F93 %29.76 in2.5 miNorth (360°)11.5 mph0.01 inRainLight Rain
7:53 AM39.0 °F36.0 °F89 %29.78 in3.0 miNorth (360°)8.1 mph19.6 mph0.02 inRainLight Rain
8:37 AM37.4 °F35.6 °F93 %29.80 in2.0 miNNW (330°)9.2 mph0.00 inRainLight Rain
8:53 AM37.9 °F36.0 °F93 %29.81 in1.5 miNNW (330°)9.2 mph0.00 inRainLight Rain
9:53 AM37.0 °F34.0 °F89 %29.87 in2.0 miNW (320°)6.9 mph0.04 inRainLight Rain
10:30 AM39.2 °F35.6 °F87 %29.85 in3.0 miNNW (340°)6.9 mph0.01 inOvercast
10:53 AM39.0 °F35.1 °F86 %29.86 in9.0 miNorth (350°)12.7 mph20.7 mph0.01 inOvercast
11:09 AM39.2 °F35.6 °F87 %29.87 in10.0 miNNW (340°)10.4 mph19.6 mphOvercast
11:28 AM39.2 °F33.8 °F81 %29.89 in10.0 miNNW (340°)15.0 mph20.7 mphOvercast
11:53 AM39.9 °F34.0 °F79 %29.89 in10.0 miNNW (340°)9.2 mphOvercast
12:13 PM41.0 °F33.8 °F76 %29.90 in10.0 miNorth (350°)9.2 mphOvercast
12:53 PM39.0 °F34.0 °F82 %29.90 in10.0 miNW (310°)10.4 mphOvercast
1:42 PM39.2 °F33.8 °F81 %29.90 in10.0 miNNW (330°)10.4 mphOvercast
1:53 PM39.9 °F34.0 °F79 %29.91 in10.0 miNW (320°)9.2 mphOvercast
2:53 PM39.9 °F34.0 °F79 %29.92 in10.0 miWNW (300°)8.1 mphOvercast
3:53 PM41.0 °F34.0 °F76 %29.94 in10.0 miNW (320°)6.9 mphOvercast
4:53 PM39.9 °F33.1 °F77 %29.95 in10.0 miWest (280°)5.8 mphMostly Cloudy
5:53 PM39.9 °F33.1 °F77 %29.96 in10.0 miWest (260°)4.6 mphMostly Cloudy
6:53 PM37.9 °F32.0 °F79 %29.98 in10.0 miCalmScattered Clouds
7:53 PM37.9 °F33.1 °F83 %29.99 in10.0 miCalmMostly Cloudy
8:53 PM36.0 °F34.0 °F93 %30.01 in10.0 miCalmOvercast
9:53 PM37.0 °F34.0 °F89 %30.02 in10.0 miSSW (200°)4.6 mphOvercast
10:00 PM37.4 °F33.8 °F87 %30.01 in10.0 miSSW (200°)4.6 mphOvercast
10:53 PM36.0 °F33.1 °F89 %30.02 in10.0 miSSW (200°)3.5 mphScattered Clouds
11:53 PM33.1 °F30.9 °F92 %30.03 in8.0 miSouth (180°)5.8 mphClear
Hourly data recorded from KBNA, located miles away from Nashville, Tennessee







STORIES FROM OUR PARTNERS